This is the latest recevied weather packets stored in our database for station/object LROD. If no packets are shown the sender has not sent any weather packets the latest 1 day(s).
| Time | Temp. | Humidity | Pressure | Rain* | Wind** | Luminosity | Snow |
|---|---|---|---|---|---|---|---|
| 1778018609 | 15° C | 48% | 1011 hPa | - | 3.58 m/s, 110° | - | - |
| 1778017710 | 16.11° C | 45% | 1011 hPa | - | 3.13 m/s, 110° | - | - |
| 1778016809 | 16.11° C | 45% | 1011 hPa | - | 3.13 m/s, 110° | - | - |
| 1778015909 | 16.11° C | 42% | 1011 hPa | - | 3.58 m/s, 100° | - | - |
| 1778015009 | 16.11° C | 42% | 1011 hPa | - | 3.58 m/s, 100° | - | - |
| 1778014111 | 17.22° C | 39% | 1011 hPa | - | 3.13 m/s, 110° | - | - |
| 1778013209 | 17.22° C | 39% | 1011 hPa | - | 3.13 m/s, 110° | - | - |
| 1778012340 | 18.89° C | 32% | 1011 hPa | - | 3.13 m/s, 140° | - | - |
| 1778011410 | 18.89° C | 32% | 1011 hPa | - | 3.13 m/s, 140° | - | - |
| 1778010509 | 17.22° C | 37% | 1011 hPa | - | 2.68 m/s, 140° | - | - |
| 1778009609 | 17.22° C | 37% | 1011 hPa | - | 2.68 m/s, 140° | - | - |
| 1778008709 | 17.78° C | 34% | 1011 hPa | - | 3.58 m/s, 170° | - | - |
| 1778007809 | 17.78° C | 34% | 1011 hPa | - | 3.58 m/s, 170° | - | - |
| 1778006910 | 17.22° C | 39% | 1011 hPa | - | 3.58 m/s, 200° | - | - |
| 1778006010 | 17.22° C | 39% | 1011 hPa | - | 3.58 m/s, 200° | - | - |
| 1778005110 | 18.89° C | 32% | 1011 hPa | - | 3.58 m/s, 200° | - | - |
| 1778004209 | 18.89° C | 32% | 1011 hPa | - | 3.58 m/s, 200° | - | - |
| 1778003307 | 22.22° C | 27% | 1011 hPa | - | 3.58 m/s, 210° | - | - |
| 1778002409 | 22.22° C | 27% | 1011 hPa | - | 3.58 m/s, 210° | - | - |
| 1778001509 | 23.89° C | 22% | 1011 hPa | - | 4.02 m/s, 220° | - | - |
| 1778000609 | 23.89° C | 22% | 1011 hPa | - | 4.02 m/s, 220° | - | - |
| 1777999709 | 26.11° C | 18% | 1011 hPa | - | 5.81 m/s, 220° | - | - |
| 1777998809 | 26.11° C | 18% | 1011 hPa | - | 5.81 m/s, 220° | - | - |
| 1777997910 | 27.22° C | 18% | 1011 hPa | - | 5.81 m/s, 230° | - | - |
| 1777997010 | 27.22° C | 18% | 1011 hPa | - | 5.81 m/s, 230° | - | - |
* Rain since midnight (hover to see other rain measurements)
** Current wind speed in m/s (hover to see current wind gust speed)